Tracking 30995 objects as of 7-Jul-2025
HD Live streaming from Space Station
objects crossing your sky now

SL-12 R/B(2)

Track SL-12 R/B(2) now!


NORAD ID: 27620
Int'l Code: 2002-060D
Perigee: 19,100.6 km
Apogee: 19,118.3 km
Inclination: 65.6 °
Period: 674.6 minutes
Semi major axis: 25480 km
RCS: 1.5848 m2 (large)
Launch date: December 25, 2002
Source: Commonwealth of Independent States (former USSR) (CIS)
Launch site: TYURATAM MISSILE AND SPACE COMPLEX (TTMTR)

Note: This is a ROCKET BODY
Your satellite tracking list
STARLINK-31313
Track 1 satellite(s)




NASA's NSSDC Master Catalog

Two Line Element Set (TLE):
1 27620U 02060D   25187.58716231 -.00000075  00000-0  00000+0 0  9993
2 27620  65.5982 326.3330 0003486 222.9005 210.0818  2.13448246175653
Source of the keplerian elements: AFSPC